GW3985 Weather Reports


time (UTC)temp
F
wind
direction
speed
knots
gust
knots
rain 1hr
in
rain 24hr
in
rain mn
in
humidity
%
barometer
mb
20260502212016 71 127 1.7 3.5 0.00 0.00 0.00 17 1023.2
20260502211017 70 120 0.9 1.7 0.00 0.00 0.00 16 1023.4
20260502210015 70 150 0.0 1.7 0.00 0.00 0.00 18 1023.5
20260502205015 68 138 0.9 4.3 0.00 0.00 0.00 18 1023.7
20260502204015 69 129 1.7 7.0 0.00 0.00 0.00 17 1023.8
20260502203017 70 260 0.9 1.7 0.00 0.00 0.00 18 1024.0
20260502202016 72 101 0.9 5.2 0.00 0.00 0.00 17 1024.0
20260502201016 71 87 0.0 2.6 0.00 0.00 0.00 18 1024.1
20260502200057 70 355 0.0 1.7 0.00 0.00 0.00 18 1024.2
20260502195015 69 224 0.9 3.5 0.00 0.00 0.00 18 1024.3
20260502194035 69 234 0.9 2.6 0.00 0.00 0.00 20 1024.4
20260502193016 68 263 0.0 1.7 0.00 0.00 0.00 20 1024.6
20260502192016 68 237 0.0 1.7 0.00 0.00 0.00 21 1024.7
20260502191017 68 229 0.9 2.6 0.00 0.00 0.00 20 1024.8
20260502190017 66 38 0.9 3.5 0.00 0.00 0.00 22 1025.0
20260502185037 66 164 0.0 1.7 0.00 0.00 0.00 20 1025.1
20260502184015 66 340 0.0 1.7 0.00 0.00 0.00 22 1025.3
20260502183015 66 229 0.9 1.7 0.00 0.00 0.00 22 1025.5
20260502182015 65 242 0.9 2.6 0.00 0.00 0.00 22 1025.6
20260502181016 65 248 0.0 1.7 0.00 0.00 0.00 23 1025.6
20260502164017 60 184 0.0 0.9 0.00 0.00 0.00 27 1026.2
20260502163035 59 123 0.9 2.6 0.00 0.00 0.00 26 1026.2
20260502162015 59 13 0.9 2.6 0.00 0.00 0.00 27 1026.2
20260502161036 59 301 0.0 1.7 0.00 0.00 0.00 29 1026.3
20260502152015 53 56 0.0 2.6 0.00 0.00 0.00 39 1026.7
20260502151035 52 220 0.9 2.6 0.00 0.00 0.00 38 1026.7
20260502123036 39 132 0.9 2.6 0.00 0.00 0.00 55 1026.1
20260502122017 38 132 0.0 0.9 0.00 0.00 0.00 55 1026.0
20260502121017 39 131 0.0 1.7 0.00 0.00 0.00 55 1025.9
20260502115015 38 134 0.9 1.7 0.00 0.00 0.00 55 1025.9
20260502114015 38 135 0.9 1.7 0.00 0.00 0.00 55 1025.9
20260502113015 38 139 0.9 1.7 0.00 0.00 0.00 55 1025.8
20260502112016 38 136 0.0 0.9 0.00 0.00 0.00 55 1025.9
20260502111016 38 134 0.9 1.7 0.00 0.00 0.00 55 1025.9
20260502110017 38 137 0.9 2.6 0.00 0.00 0.00 55 1025.9
20260502105017 38 133 0.9 2.6 0.00 0.00 0.00 55 1025.9
20260502104015 39 135 0.9 1.7 0.00 0.00 0.00 55 1026.0
20260502103015 38 131 0.9 2.6 0.00 0.00 0.00 55 1025.9
20260502102016 39 136 0.9 2.6 0.00 0.00 0.00 55 1025.9
20260502101036 39 135 0.9 2.6 0.00 0.00 0.00 55 1025.8
20260502091016 40 136 0.9 2.6 0.00 0.00 0.00 52 1025.7
20260502071015 40 137 0.0 0.9 0.00 0.00 0.00 53 1026.0
20260502070015 41 132 0.0 1.7 0.00 0.00 0.00 52 1026.0
20260502065036 41 132 0.9 2.6 0.00 0.00 0.00 52 1026.1
20260502064036 41 135 1.7 3.5 0.00 0.00 0.00 51 1026.0
20260502063037 42 136 0.9 3.5 0.00 0.00 0.00 51 1026.0
20260502062017 42 139 0.0 1.7 0.00 0.00 0.00 51 1026.0
20260502061015 42 139 0.9 2.6 0.00 0.00 0.00 50 1026.0
20260502060015 43 135 0.9 2.6 0.00 0.00 0.00 49 1025.9
20260502055015 43 134 0.9 2.6 0.00 0.00 0.00 49 1025.9
20260502054036 43 137 0.0 1.7 0.00 0.00 0.00 49 1025.9
20260502053016 43 0.0 0.0 0.00 0.00 0.00 49 1025.9
20260502052057 43 124 0.0 1.7 0.00 0.00 0.00 49 1025.9
20260502051017 44 126 0.0 0.9 0.00 0.00 0.00 48 1025.8
20260502050015 45 132 0.0 0.9 0.00 0.00 0.00 46 1025.8
20260502045035 46 118 0.0 0.9 0.00 0.00 0.00 41 1025.7
20260502044016 46 118 0.0 0.9 0.00 0.00 0.00 41 1025.6
20260502043016 46 112 0.0 0.9 0.00 0.01 0.00 40 1025.6
20260502042016 47 101 0.0 0.9 0.00 0.01 0.00 39 1025.4
20260502041017 46 102 0.0 0.9 0.00 0.01 0.00 41 1025.3
20260502040017 46 0.0 0.0 0.00 0.01 0.00 41 1025.2
20260502035015 46 102 0.0 0.9 0.00 0.02 0.00 40 1025.1
20260502034055 47 102 0.0 0.9 0.00 0.05 0.00 40 1025.0
20260502033036 46 0.0 0.0 0.00 0.06 0.00 40 1024.9
20260502032016 46 0.0 0.0 0.00 0.06 0.00 41 1024.7
20260502031016 47 0.0 0.0 0.00 0.06 0.00 40 1024.6
20260502030017 47 0.0 0.0 0.00 0.06 0.00 38 1024.5
20260502025037 48 0.0 0.0 0.00 0.06 0.00 37 1024.3
20260502024035 49 0.0 0.0 0.00 0.06 0.00 36 1024.2
20260502023015 50 0.0 0.0 0.00 0.06 0.00 34 1024.1
20260502022016 51 331 0.0 0.9 0.00 0.06 0.00 32 1023.9
20260502021036 51 327 0.0 0.9 0.00 0.06 0.00 31 1023.8
20260502020016 52 273 0.0 0.9 0.00 0.06 0.00 31 1023.8
20260502015037 53 0.0 0.0 0.00 0.06 0.00 30 1023.7
20260502014017 54 275 0.0 0.9 0.00 0.06 0.00 28 1023.6
20260502013035 54 262 0.0 0.9 0.00 0.06 0.00 27 1023.5
20260502012035 55 298 0.0 0.9 0.00 0.06 0.00 27 1023.4
20260502011015 55 149 0.0 0.9 0.00 0.06 0.00 26 1023.4
20260502010036 56 255 0.0 1.7 0.00 0.06 0.00 25 1023.3
20260502005017 56 285 0.0 1.7 0.00 0.06 0.00 24 1023.3
20260502004017 58 305 0.0 2.6 0.00 0.06 0.00 24 1023.3
20260502003037 59 42 0.0 2.6 0.00 0.06 0.00 23 1023.2
20260502002015 60 277 0.0 1.7 0.00 0.06 0.00 22 1023.2
20260502001015 61 179 0.0 2.6 0.00 0.06 0.00 21 1023.1
20260502000016 62 51 0.9 6.1 0.00 0.06 0.00 21 1023.1
20260501235056 61 63 0.0 0.9 0.00 0.06 0.00 22 1023.1
20260501234016 61 343 0.9 4.3 0.00 0.06 0.00 21 1023.2
20260501233017 61 285 0.9 2.6 0.00 0.06 0.00 22 1023.3
20260501232015 61 341 0.0 1.7 0.00 0.06 0.00 23 1023.2
20260501231015 60 346 0.9 3.5 0.00 0.06 0.00 23 1023.2
20260501230015 58 335 0.0 2.6 0.00 0.06 0.00 26 1023.2
20260501225016 57 146 0.0 0.9 0.00 0.06 0.00 28 1023.2
20260501224016 58 342 0.0 1.7 0.00 0.06 0.00 28 1023.2
20260501223017 58 39 0.9 5.2 0.00 0.06 0.00 28 1023.2
20260501222037 58 258 0.0 0.9 0.00 0.06 0.00 29 1023.2
20260501221035 59 286 0.0 2.6 0.00 0.06 0.00 29 1023.3
20260501220015 59 54 0.0 1.7 0.00 0.06 0.00 29 1023.3
20260501215015 59 292 0.0 0.9 0.00 0.06 0.00 30 1023.4
20260501214016 60 265 0.9 2.6 0.00 0.06 0.00 29 1023.4
20260501213016 60 245 0.9 2.6 0.00 0.06 0.00 30 1023.5